, NV

(GMT )
Eureka Airport

Weather History for K05U - February, 2014

Change the Weather History Date:

Wednesday, February 26, 2014

  Actual Average Record
Temperature  
Mean Temperature 50 °F -  
Max Temperature 60 °F - - ()
Min Temperature 39 °F - - ()
Degree Days  
Heating Degree Days 16    
Moisture  
Dew Point 22 °F    
Average Humidity 35    
Maximum Humidity 65    
Minimum Humidity 20    
Precipitation  
Precipitation 0.00 in - - ()
Sea Level Pressure  
Sea Level Pressure 29.90 in    
Wind  
Wind Speed 10 mph (South)    
Max Wind Speed 18 mph    
Max Gust Speed 25 mph    
Visibility 10 miles    
Events      
Averages and records for this station are not official NWS values.
T = Trace of Precipitation, MM = Missing Value Source: NWS Daily Summary

Daily Weather History Graph

Daily Weather History Graph

Search for Another Location

Airport or City:

Astronomy

Feb. 26, 2014 Rise Set
Actual Time 6:21 AM PST 5:33 PM PST
Civil Twilight 5:54 AM PST 6:00 PM PST
Nautical Twilight 5:22 AM PST 6:31 PM PST
Astronomical Twilight 4:51 AM PST 7:02 PM PST
Moon 4:10 AM PST (2/26) 2:53 PM PST (2/26)
Length of Visible Light 12h 06m
Length of Day
11h 11m
Waning Crescent, 9% of the Moon is Illuminated
Feb 26
Waning Crescent
Mar 1
New
Mar 8
First Quarter
Mar 16
Full
Mar 23
Last Quarter

Hourly Weather History & Observations

Time (PST) Temp. Windchill Dew Point Humidity Pressure Visibility Wind Dir Wind Speed Gust Speed Precip Events Conditions
10:55 AM 55.4 °F - 17.6 °F 23% 30.01 in 10.0 mi SSE 3.5 mph - N/A   Clear
11:15 AM 55.4 °F - 19.4 °F 25% 30.00 in 10.0 mi South 3.5 mph - N/A   Clear
11:35 AM 57.2 °F - 17.6 °F 21% 29.99 in 10.0 mi South 12.7 mph 18.4 mph N/A   Clear
11:55 AM 59.0 °F - 19.4 °F 22% 29.98 in 10.0 mi South 12.7 mph 18.4 mph N/A   Clear
12:15 PM 57.2 °F - 19.4 °F 23% 29.97 in 10.0 mi South 12.7 mph - N/A   Clear
12:35 PM 60.8 °F - 19.4 °F 20% 29.96 in 10.0 mi South 9.2 mph 20.7 mph N/A   Clear
12:55 PM 59.0 °F - 19.4 °F 22% 29.94 in 10.0 mi South 10.4 mph - N/A   Clear
1:15 PM 60.8 °F - 19.4 °F 20% 29.93 in 10.0 mi South 9.2 mph - N/A   Clear
1:35 PM 59.0 °F - 19.4 °F 22% 29.92 in 10.0 mi South 13.8 mph - N/A   Clear
1:55 PM 59.0 °F - 17.6 °F 20% 29.91 in 10.0 mi South 12.7 mph 17.3 mph N/A   Clear
2:15 PM 59.0 °F - 19.4 °F 22% 29.91 in 10.0 mi South 16.1 mph 20.7 mph N/A   Clear
2:35 PM 59.0 °F - 17.6 °F 20% 29.90 in 10.0 mi South 15.0 mph - N/A   Scattered Clouds
2:55 PM 57.2 °F - 17.6 °F 21% 29.90 in 10.0 mi South 15.0 mph 20.7 mph N/A   Mostly Cloudy
3:15 PM 57.2 °F - 19.4 °F 23% 29.89 in 10.0 mi South 15.0 mph 18.4 mph N/A   Partly Cloudy
3:35 PM 57.2 °F - 19.4 °F 23% 29.89 in 10.0 mi South 11.5 mph - N/A   Clear
3:55 PM 57.2 °F - 17.6 °F 21% 29.88 in 10.0 mi South 17.3 mph 20.7 mph N/A   Clear
4:15 PM 57.2 °F - 19.4 °F 23% 29.88 in 10.0 mi South 15.0 mph 19.6 mph N/A   Partly Cloudy
4:35 PM 55.4 °F - 19.4 °F 25% 29.88 in 10.0 mi South 12.7 mph - N/A   Mostly Cloudy
4:55 PM 55.4 °F - 21.2 °F 26% 29.88 in 10.0 mi South 13.8 mph - N/A   Overcast
5:15 PM 53.6 °F - 23.0 °F 30% 29.87 in 10.0 mi South 12.7 mph 19.6 mph N/A   Overcast
5:35 PM 53.6 °F - 21.2 °F 28% 29.87 in 10.0 mi South 10.4 mph - N/A   Overcast
5:55 PM 50.0 °F - 23.0 °F 35% 29.88 in 10.0 mi South 11.5 mph 18.4 mph N/A   Overcast
6:15 PM 50.0 °F - 23.0 °F 35% 29.88 in 10.0 mi South 9.2 mph - N/A   Overcast
6:35 PM 50.0 °F - 23.0 °F 35% 29.88 in 10.0 mi South 15.0 mph 19.6 mph N/A   Overcast
6:55 PM 50.0 °F - 24.8 °F 37% 29.89 in 10.0 mi SW 9.2 mph - N/A   Overcast
7:15 PM 48.2 °F - 26.6 °F 43% 29.89 in 10.0 mi SSW 12.7 mph 17.3 mph N/A   Overcast
7:35 PM 48.2 °F - 26.6 °F 43% 29.90 in 10.0 mi SW 18.4 mph 25.3 mph N/A   Overcast
7:55 PM 46.4 °F 41.9 °F 28.4 °F 50% 29.90 in 10.0 mi SW 9.2 mph - N/A   Overcast
8:15 PM 46.4 °F 41.1 °F 28.4 °F 50% 29.90 in 10.0 mi SW 11.5 mph 17.3 mph N/A   Overcast
8:35 PM - - - N/A% 29.90 in 10.0 mi South 6.9 mph - N/A   Overcast
8:55 PM - - - N/A% 29.89 in 10.0 mi South 5.8 mph - N/A   Overcast
9:15 PM - - - N/A% 29.89 in 10.0 mi SSE 8.1 mph - N/A   Overcast
9:35 PM - - - N/A% 29.87 in 10.0 mi SSE 5.8 mph - N/A   Partly Cloudy
9:55 PM 41.0 °F 39.0 °F 30.2 °F 65% 29.88 in 10.0 mi South 3.5 mph - N/A   Partly Cloudy
10:15 PM 39.2 °F 34.2 °F 28.4 °F 65% 29.87 in 10.0 mi SSE 6.9 mph - N/A   Clear
10:35 PM 39.2 °F 35.9 °F 28.4 °F 65% 29.87 in 10.0 mi South 4.6 mph - N/A   Clear
10:55 PM 39.2 °F 35.9 °F 28.4 °F 65% 29.87 in 10.0 mi WSW 4.6 mph - N/A   Clear
11:15 PM 39.2 °F - 28.4 °F 65% 29.86 in 10.0 mi Calm Calm - N/A   Clear
11:35 PM 39.2 °F 35.0 °F 28.4 °F 65% 29.85 in 10.0 mi East 5.8 mph - N/A   Scattered Clouds
11:55 PM 41.0 °F 38.0 °F 28.4 °F 61% 29.84 in 10.0 mi ESE 4.6 mph - N/A   Mostly Cloudy